[[{"header":{"parameterUnit":"m.s-1","parameterCategory":1,"la1":30.2991,"la2":30.254,"lo1":-89.0895,"lo2":-89.0444,"dy":0.0017,"dx":0.0017,"nx":28,"ny":28,"refTime":"2025-01-17T03:00:00:Z","depth":0,"parameterNumber":2,"parameterNumberName":"U-component_of_WINDS"},"data":[0,0,0,0,0,0,0,0,0,0,0,0,0,0,0,0,0,0,0,0,0,0,0,0,0,0,0,0,0,0,0,0,0,0,0,0,0,0,0,0,0,0,0,0,0,0,0,0,0,0,0,0,0,0,0,0,0,0,3.7789,3.7789,0,3.7793,3.7793,3.7793,3.7775,3.7774,3.7774,3.7773,3.7778,3.7778,3.7779,0,0,0,0,0,0,0,0,0,0,0,0,0,3.7769,3.777,3.7789,3.7789,3.7789,3.7793,3.7793,3.7793,3.7775,3.7774,3.7774,3.7773,3.7777,3.7778,3.7779,0,0,0,0,0,0,0,0,0,0,0,0,0,3.7776,3.777,3.7789,3.7781,3.778,3.7793,3.7793,3.7793,3.7775,3.7774,3.7773,3.7773,3.7777,3.7778,3.7779,3.78,0,0,3.7782,3.7782,0,0,0,0,0,0,0,0,3.7776,3.7777,3.7782,3.7781,3.778,3.7783,3.7787,3.7796,3.7775,3.7777,3.7773,3.7772,3.778,3.7781,3.7783,3.7801,3.7801,3.7782,3.7782,3.7783,3.7783,0,0,0,0,0,0,0,3.7775,3.7776,3.7791,3.7782,3.7781,3.7778,3.7778,3.7789,3.7783,3.7777,3.7775,3.7776,3.7779,3.7782,3.7783,3.7801,3.7782,3.7783,3.7783,3.7784,3.7841,3.7842,0,0,0,0,0,0,3.7776,3.7776,3.779,3.7791,3.7776,3.7779,3.7779,3.7783,3.7783,3.7782,3.7777,3.7775,3.7781,3.7782,3.7783,3.7811,3.7783,3.7784,3.7784,3.784,3.7841,3.7842,0,0,0,0,0,0,3.7775,3.7777,3.779,3.7783,3.7785,3.778,3.7784,3.7783,3.7786,3.7783,3.7782,3.778,3.778,3.7782,3.7797,3.7811,3.7784,3.7785,3.7839,3.784,3.7842,3.7866,0,0,0,0,0,0,3.7775,3.7777,3.7784,3.7783,3.7785,3.7803,3.7785,3.7784,3.7787,3.7785,3.7786,3.7785,3.778,3.7796,3.7798,3.7812,3.7786,3.7838,3.784,3.7841,3.7864,3.7868,3.7872,0,0,0,0,0,3.7774,3.779,3.7784,3.7786,3.7794,3.7804,3.7805,3.7799,3.7788,3.7797,3.7795,3.7785,3.7809,3.7798,3.78,3.7814,3.7837,3.7839,3.7841,3.7862,3.7867,3.7872,0,0,0,0,0,0,3.7791,3.7789,3.7783,3.7799,3.7802,3.7801,3.7811,3.7803,3.7809,3.7807,3.7799,3.7799,3.7817,3.7817,3.7804,3.7837,3.7821,3.7824,3.7837,3.7841,3.7845,3.7846,3.7786,0,0,0,0,0,3.7797,3.7805,3.7803,3.7818,3.7819,3.7815,3.7819,3.7814,3.7817,3.7818,3.7817,3.7821,3.783,3.7835,3.7843,3.7864,3.7866,3.7875,3.7879,3.7882,3.7885,3.79,3.7906,3.785,3.785,3.785,0,0,3.7809,3.7809,3.7814,3.7821,3.7823,3.7833,3.7816,3.7826,3.7834,3.7819,3.7835,3.7835,3.7839,3.7858,3.7867,3.7859,3.7901,3.7885,3.7888,3.7889,3.7903,3.7908,3.7913,3.7851,3.7851,3.7851,0,0,3.7836,3.7835,3.7849,3.7852,3.7855,3.7853,3.7856,3.7857,3.7857,3.7872,3.7863,3.7872,3.7886,3.7891,3.7895,3.7928,3.792,3.793,3.7951,3.7966,3.797,3.7974,3.7989,3.7994,3.7933,3.7933,3.7933,0,3.785,3.7864,3.7857,3.7869,3.7874,3.7862,3.7878,3.788,3.7886,3.789,3.7881,3.7902,3.7903,3.7925,3.7934,3.7936,3.7942,3.793,3.797,3.7974,3.7977,3.7992,3.7997,3.7934,3.7934,3.7934,3.7934,0,3.7883,3.7893,3.7904,3.7911,3.7917,3.793,3.7927,3.7934,3.793,3.7929,3.7947,3.7949,3.7958,3.7963,3.7958,3.7986,3.7981,3.7971,3.7955,3.7984,3.7998,3.8003,3.7936,3.7936,3.7936,3.7935,0,0,3.7919,3.7925,3.7929,3.7934,3.7938,3.7947,3.7961,3.7971,3.7979,3.7984,3.7998,3.8012,3.8004,3.8009,3.8004,3.8017,3.8048,3.8006,3.8006,3.8016,3.8083,3.8092,3.8098,3.8042,3.8043,3.8044,3.8084,0,3.7947,3.7972,3.7968,3.7993,3.8004,3.7995,3.8008,3.8014,3.8014,3.8025,3.8026,3.8037,3.8024,3.8028,3.804,3.8041,3.8061,3.8038,3.8057,3.8058,3.8059,3.8104,3.8113,3.815,3.8088,3.8089,3.809,0,3.7983,3.7991,3.8018,3.8024,3.8029,3.8041,3.8052,3.8062,3.8069,3.8069,3.8076,3.807,3.8087,3.8071,3.8096,3.8081,3.8088,3.8091,3.8092,3.8095,3.8077,3.8111,3.8161,3.8168,3.8097,3.8097,3.8096,0,3.801,3.8028,3.8047,3.8051,3.8058,3.8068,3.8071,3.8077,3.8085,3.8095,3.8101,3.8112,3.8119,3.8129,3.8128,3.8115,3.8155,3.8137,3.8157,3.8157,3.8166,3.8166,3.8221,3.8168,3.8168,3.8168,3.8168,0,3.8043,3.806,3.806,3.8071,3.8092,3.8088,3.8108,3.8111,3.8118,3.8131,3.8124,3.8137,3.8134,3.8148,3.8147,3.817,3.8172,3.8174,3.8174,3.8176,3.8176,3.8182,3.818,3.8169,3.8169,3.8169,3.8169,0,3.8076,3.8076,3.8097,3.8104,3.8106,3.8121,3.8127,3.814,3.8141,3.8159,3.8163,3.8165,3.8181,3.8181,3.8199,3.8199,3.8228,3.8224,3.8226,3.8226,3.8247,3.8246,3.8309,3.8319,3.8258,3.8258,3.8259,0,3.8098,3.8111,3.812,3.8129,3.8134,3.8148,3.8157,3.8155,3.8165,3.8177,3.8188,3.8204,3.8217,3.8244,3.8248,3.8263,3.8261,3.8282,3.8263,3.8266,3.8265,3.8265,3.8268,3.8286,3.8287,3.8287,3.8288,0,3.8137,3.8138,3.815,3.8164,3.8175,3.8186,3.8196,3.8204,3.8204,3.8215,3.8233,3.8243,3.8263,3.8281,3.8296,3.8301,3.8296,3.8294,3.83,3.8303,3.8305,3.8307,3.8239,3.8293,3.8292,3.8292,3.8292,3.8291,3.8167,3.818,3.819,3.8205,3.8213,3.8224,3.8237,3.8241,3.8256,3.8273,3.8271,3.8291,3.8302,3.8323,3.833,3.8347,3.834,3.8347,3.835,3.8352,3.8356,3.8301,3.8349,3.8349,3.8349,3.8349,3.8349,0,3.8208,3.8215,3.8229,3.8245,3.8258,3.8252,3.8264,3.8276,3.8294,3.8305,3.8319,3.8341,3.8359,3.8366,3.8384,3.8397,3.8395,3.8402,3.8402,3.8404,3.836,3.8355,3.8403,3.8403,3.8403,3.8403,3.8403,3.8403,3.8231,3.8255,3.8257,3.8285,3.8292,3.8313,3.8321,3.8332,3.8341,3.8366,3.8381,3.8386,3.8396,3.8416,3.8433,3.8435,3.8443,3.8451,3.8452,3.8412,3.8406,3.8401,3.8396,3.8452,3.8452,3.8495,3.8495,3.8496]},{"header":{"parameterUnit":"m.s-1","parameterCategory":1,"la1":30.2991,"la2":30.254,"lo1":-89.0895,"lo2":-89.0444,"dy":0.0017,"dx":0.0017,"nx":28,"ny":28,"refTime":"2025-01-17T03:00:00:Z","depth":0,"parameterNumber":3,"parameterNumberName":"V-component_of_WINDS"},"data":[0,0,0,0,0,0,0,0,0,0,0,0,0,0,0,0,0,0,0,0,0,0,0,0,0,0,0,0,0,0,0,0,0,0,0,0,0,0,0,0,0,0,0,0,0,0,0,0,0,0,0,0,0,0,0,0,0,0,1.7048,1.7049,0,1.7128,1.7129,1.713,1.7154,1.7153,1.7153,1.7153,1.7234,1.7237,1.7239,0,0,0,0,0,0,0,0,0,0,0,0,0,1.6914,1.6917,1.7048,1.7049,1.705,1.7128,1.7129,1.713,1.7154,1.7153,1.7153,1.7152,1.7233,1.7236,1.7239,0,0,0,0,0,0,0,0,0,0,0,0,0,1.6981,1.6917,1.7047,1.7071,1.7074,1.7128,1.7129,1.7131,1.7154,1.7153,1.7153,1.7152,1.7232,1.7236,1.724,1.7276,0,0,1.7252,1.7253,0,0,0,0,0,0,0,0,1.6977,1.6986,1.7066,1.7069,1.7073,1.713,1.7112,1.7179,1.7154,1.7124,1.7153,1.7152,1.72,1.7207,1.7223,1.728,1.7283,1.7252,1.7254,1.7256,1.7257,0,0,0,0,0,0,0,1.6973,1.6983,1.708,1.7068,1.7071,1.7077,1.7086,1.7125,1.7164,1.7126,1.7128,1.7137,1.7202,1.7219,1.7225,1.7285,1.7252,1.7255,1.7258,1.7259,1.7377,1.7378,0,0,0,0,0,0,1.6964,1.6979,1.7077,1.7082,1.7023,1.708,1.709,1.7112,1.7164,1.7171,1.7138,1.7138,1.7213,1.7221,1.7228,1.7275,1.7256,1.726,1.7262,1.7376,1.7377,1.7378,0,0,0,0,0,0,1.6961,1.6973,1.7074,1.7031,1.7044,1.7083,1.7108,1.7114,1.7132,1.7173,1.718,1.7149,1.7213,1.7223,1.7264,1.7278,1.7261,1.7265,1.7375,1.7376,1.7377,1.7368,0,0,0,0,0,0,1.6957,1.6972,1.6986,1.7031,1.7046,1.7109,1.7109,1.7116,1.7139,1.714,1.7185,1.7192,1.7213,1.7259,1.7268,1.7283,1.7268,1.7374,1.7376,1.7377,1.7367,1.7369,1.737,0,0,0,0,0,1.6952,1.6979,1.6986,1.6998,1.7065,1.7109,1.7118,1.7143,1.714,1.7154,1.7181,1.719,1.7275,1.7263,1.7274,1.729,1.7373,1.7375,1.7377,1.7367,1.7369,1.737,0,0,0,0,0,0,1.6934,1.6986,1.6994,1.7036,1.7068,1.7113,1.7132,1.7144,1.7177,1.7177,1.7205,1.7215,1.7255,1.7277,1.7262,1.7328,1.7324,1.7328,1.7313,1.7315,1.7316,1.731,1.7271,0,0,0,0,0,1.6935,1.6966,1.701,1.7043,1.7059,1.7093,1.7113,1.7129,1.7164,1.7177,1.7207,1.7239,1.7274,1.7295,1.7329,1.7371,1.7381,1.7387,1.7389,1.7389,1.7393,1.7418,1.7421,1.7384,1.7384,1.7384,0,0,1.6937,1.6969,1.6987,1.704,1.7067,1.71,1.7104,1.7138,1.7163,1.7182,1.7224,1.7247,1.7285,1.7327,1.7347,1.7346,1.7406,1.7392,1.7392,1.7395,1.742,1.7423,1.7426,1.7385,1.7385,1.7385,0,0,1.6957,1.6984,1.7016,1.7043,1.7083,1.7106,1.7113,1.7157,1.7173,1.7215,1.7231,1.7261,1.7319,1.7346,1.7367,1.7399,1.741,1.7409,1.7417,1.744,1.7443,1.7446,1.7458,1.7462,1.7412,1.7412,1.7412,0,1.6954,1.7004,1.703,1.7064,1.7087,1.7107,1.7139,1.7164,1.7213,1.7229,1.7227,1.7301,1.7329,1.7378,1.7386,1.7402,1.7412,1.7404,1.7441,1.7444,1.7447,1.7459,1.7463,1.7412,1.7412,1.7412,1.7412,0,1.6999,1.7033,1.7054,1.7102,1.7127,1.716,1.7191,1.7214,1.7228,1.7251,1.7294,1.7328,1.7369,1.7382,1.7396,1.7434,1.7432,1.7435,1.7432,1.745,1.7462,1.7466,1.7412,1.7412,1.7412,1.7412,0,0,1.7009,1.7072,1.7079,1.7102,1.7149,1.7176,1.721,1.7251,1.727,1.7304,1.7333,1.7382,1.7386,1.741,1.7428,1.7448,1.7473,1.7449,1.7451,1.7453,1.7518,1.7516,1.752,1.748,1.7481,1.7482,1.7515,0,1.7036,1.7098,1.7123,1.7173,1.7205,1.7225,1.7255,1.7287,1.7309,1.734,1.7365,1.74,1.7402,1.7417,1.7438,1.7465,1.7486,1.7463,1.7508,1.7509,1.7498,1.7526,1.7524,1.7554,1.752,1.752,1.7521,0,1.7075,1.711,1.7164,1.7208,1.7223,1.7249,1.7289,1.7318,1.7355,1.737,1.7398,1.7414,1.7451,1.7445,1.7497,1.748,1.75,1.7516,1.7518,1.7524,1.7516,1.7533,1.7564,1.7568,1.7528,1.7528,1.7527,0,1.7078,1.7139,1.7179,1.7197,1.725,1.7268,1.729,1.7327,1.7351,1.7386,1.7401,1.744,1.7461,1.7491,1.7517,1.751,1.7567,1.7563,1.758,1.758,1.7591,1.759,1.7626,1.7603,1.7603,1.7603,1.7603,0,1.7106,1.7138,1.7181,1.7206,1.7243,1.7271,1.7307,1.7331,1.7363,1.7393,1.7413,1.744,1.7474,1.7506,1.7527,1.7566,1.7576,1.7589,1.7594,1.7588,1.7586,1.7601,1.76,1.7604,1.7604,1.7604,1.7604,0,1.7115,1.7145,1.7191,1.7237,1.7249,1.7275,1.7314,1.7339,1.7363,1.7401,1.7411,1.7449,1.7487,1.7517,1.7567,1.7581,1.7624,1.7629,1.7612,1.7614,1.7631,1.7629,1.7678,1.7686,1.7657,1.7657,1.7657,0,1.7131,1.7157,1.7206,1.7228,1.7251,1.7285,1.7309,1.7339,1.7363,1.7408,1.7428,1.7469,1.7502,1.7564,1.7595,1.7634,1.7641,1.7655,1.7647,1.764,1.7642,1.764,1.7644,1.7656,1.7656,1.7657,1.7657,0,1.7156,1.717,1.7205,1.7245,1.7274,1.7307,1.734,1.7356,1.7392,1.7419,1.7459,1.7485,1.7537,1.7578,1.762,1.7643,1.7656,1.7659,1.7666,1.7659,1.7648,1.7655,1.7615,1.7658,1.7658,1.7658,1.7658,1.7658,1.717,1.7194,1.7233,1.7271,1.7299,1.733,1.7357,1.7384,1.7418,1.7463,1.7479,1.7521,1.7558,1.7616,1.764,1.7674,1.7674,1.7683,1.7685,1.7687,1.7687,1.7643,1.7681,1.7681,1.7681,1.7681,1.7681,0,1.7197,1.7223,1.7258,1.7305,1.7335,1.7345,1.7383,1.7407,1.7444,1.7478,1.7512,1.7559,1.7598,1.7633,1.7674,1.7694,1.7701,1.7704,1.7703,1.7709,1.7684,1.7675,1.7698,1.7698,1.7698,1.7698,1.7698,1.7698,1.7214,1.7256,1.7275,1.7331,1.7357,1.7398,1.7419,1.7448,1.7476,1.7528,1.7561,1.7584,1.7619,1.7663,1.7699,1.7709,1.7723,1.7725,1.7735,1.7712,1.771,1.7708,1.77,1.7727,1.7727,1.7757,1.7758,1.7758]}]]